Weather History for Poplar Bluff, MO

Change the Weather History Date:

Saturday, December 1, 2012

  Actual Average Record
Temperature  
Mean Temperature 58 °F -  
Max Temperature 66 °F 52 °F 71 °F (1922)
Min Temperature 51 °F 32 °F 13 °F (1924)
Degree Days  
Heating Degree Days 6    
Growing Degree Days 8 (Base 50)    
Moisture  
Dew Point 49 °F    
Average Humidity 67    
Maximum Humidity 86    
Minimum Humidity 59    
Precipitation  
Precipitation 0.00 in - - ()
Sea Level Pressure  
Sea Level Pressure 30.10 in    
Wind  
Wind Speed 6 mph (South)    
Max Wind Speed 17 mph    
Max Gust Speed 22 mph    
Visibility 10 miles    
Events      
Averages and records for this station are not official NWS values.
T = Trace of Precipitation, MM = Missing Value Source: NWS Daily Summary

Daily Weather History Graph

Daily Weather History Graph

Search for Another Location

Airport:

Trip Planner

Search our weather history database for the weather conditions in past years. The results will help you decide how hot, cold, wet, or windy it might be!

Date:

Astronomy

Dec. 01, 2012 Rise Set
Actual Time 6:55 AM CST 4:45 PM CST
Civil Twilight 6:27 AM CST 5:13 PM CST
Nautical Twilight 5:55 AM CST 5:45 PM CST
Astronomical Twilight 5:23 AM CST 6:16 PM CST
Moon 7:34 PM CST (12/1) 9:09 AM CST (12/1)
Length of Visible Light 10h 46m
Length of Day
9h 49m
Waning Gibbous, 91% of the Moon is Illuminated
Dec 1
Waning Gibbous
Dec 6
Last Quarter
Dec 13
New
Dec 19
First Quarter
Dec 28
Full

Hourly Weather History & Observations

Time (CST) Temp. Dew Point Humidity Pressure Visibility Wind Dir Wind Speed Gust Speed Precip Events Conditions
12:53 AM 55.0 °F 48.0 °F 77% 30.16 in 10.0 mi Calm Calm - N/A   Overcast
1:53 AM 51.1 °F 46.9 °F 86% 30.17 in 9.0 mi Calm Calm - N/A   Overcast
2:53 AM 54.0 °F 48.0 °F 80% 30.16 in 10.0 mi South 3.5 mph - N/A   Overcast
3:53 AM 55.9 °F 46.9 °F 72% 30.16 in 10.0 mi South 5.8 mph - N/A   Overcast
4:53 AM 54.0 °F 46.9 °F 77% 30.15 in 10.0 mi SSW 4.6 mph - N/A   Overcast
6:53 AM 54.0 °F 46.0 °F 75% 30.17 in 10.0 mi SSE 4.6 mph - N/A   Overcast
7:53 AM 55.9 °F 46.0 °F 69% 30.17 in 10.0 mi South 6.9 mph - N/A   Overcast
8:53 AM 57.0 °F 46.9 °F 69% 30.17 in 10.0 mi South 3.5 mph - N/A   Overcast
9:53 AM 60.1 °F 48.0 °F 64% 30.17 in 10.0 mi South 8.1 mph - N/A   Mostly Cloudy
10:53 AM 63.0 °F 48.9 °F 60% 30.15 in 10.0 mi South 11.5 mph - N/A   Overcast
11:53 AM 64.0 °F 50.0 °F 60% 30.12 in 10.0 mi South 10.4 mph - N/A   Mostly Cloudy
12:53 PM 64.9 °F 51.1 °F 61% 30.09 in 10.0 mi South 12.7 mph - N/A   Mostly Cloudy
1:53 PM 66.0 °F 52.0 °F 60% 30.06 in 10.0 mi South 17.3 mph - N/A   Mostly Cloudy
2:53 PM 66.9 °F 52.0 °F 59% 30.06 in 10.0 mi South 9.2 mph - N/A   Overcast
3:53 PM 66.0 °F 52.0 °F 60% 30.04 in 10.0 mi South 12.7 mph 21.9 mph N/A   Mostly Cloudy
4:53 PM 64.9 °F 52.0 °F 63% 30.04 in 10.0 mi South 10.4 mph - N/A   Partly Cloudy
5:53 PM 64.0 °F 51.1 °F 63% 30.04 in 10.0 mi South 9.2 mph - N/A   Scattered Clouds
6:53 PM 63.0 °F 51.1 °F 65% 30.04 in 10.0 mi South 10.4 mph - N/A   Clear
7:53 PM 62.1 °F 51.1 °F 67% 30.03 in 10.0 mi South 9.2 mph - N/A   Scattered Clouds
8:53 PM 62.1 °F 51.1 °F 67% 30.04 in 10.0 mi South 9.2 mph - N/A   Overcast
9:53 PM 63.0 °F 50.0 °F 63% 30.05 in 10.0 mi South 11.5 mph - N/A   Overcast
10:53 PM 62.1 °F 50.0 °F 65% 30.08 in 10.0 mi SSW 8.1 mph - N/A   Overcast
11:53 PM 63.0 °F 48.9 °F 60% 30.08 in 10.0 mi South 10.4 mph - N/A   Overcast